www.pogodaiklimat.ru

Погода и климат >> Архив погоды >> Азербайджан >> Баку (дендропарк)


ПОГОДА в Баку (дендропарк)

  • Прогноз погоды в Баку (дендропарк)
  • Монитор погоды в Баку (дендропарк)

АРХИВ ПОГОДЫ в Баку (дендропарк)

Время (UTC), дата Ветер
(напр.,м/с)
 
Видим.   Явления Облачность Т
(С)
Тd
(С)
f
(%)
Тe
(С)
Тes
(С)
Комфортность P
(гПа)
Po
(гПа)
Тmin
(С)
Tmax
(С)
R
(мм)
R24
(мм)
S
(см)
00 19.08 штиль 0 20 км ясно +20.1 +12.1 60 +22 +22 комфорт 1012.6 1007.1
06 19.08 штиль 0 20 км ясно +31.8 +13.6 33 +33 +48 жарко 1014.5 1009.3 +19.9
12 19.08 С 3 20 км ясно +35.2 +8.1 19 +33 +40 жарко 1014.9 1010.0
18 19.08 штиль 0 20 км ясно +25.0 +14.4 52 +28 +28 жарко 1016.8 1011.6 +36.3
00 20.08 З 3 20 км ясно +23.0 +16.3 66 +28 +28 душно 1016.6 1011.2
06 20.08 З 2 20 км ясно +30.0 +18.6 50 +35 +46 очень
душно
1017.8 1012.5 +22.4
12 20.08 штиль 0 20 км ясно +35.0 +15.4 31 +37 +48 очень
душно
1016.2 1011.6
18 20.08 штиль 0 20 км ясно +28.0 +11.3 35 +29 +29 жарко 1016.5 1011.6 +36.6
00 21.08 штиль 0 20 км ясно +24.0 +9.5 40 +25 +25 комфорт 1015.5 1010.5
06 21.08 штиль 0 20 км ясно +33.2 +8.8 22 +32 +46 жарко 1016.6 1011.6 +23.7
12 21.08 Ю 2 20 км ясно +36.2 +8.5 18 +34 +43 очень
жарко
1014.0 1009.5
18 21.08 штиль 0 20 км ясно +27.7 +15.9 49 +31 +31 душно 1013.8 1008.9 +38.4
00 22.08 штиль 0 20 км ясно +24.4 +14.7 55 +27 +27 жарко 1012.9 1007.9
06 22.08 штиль 0 20 км ясно +33.2 +11.8 27 +33 +47 жарко 1013.0 1008.1 +22.6
12 22.08 ЮВ 3 20 км ясно +36.4 +6.7 16 +34 +41 очень
жарко
1011.2 1006.7
18 22.08 ЮВ 2 20 км ясно +26.4 +11.8 40 +28 +28 жарко 1012.3 1007.4 +37.9
00 23.08 штиль 0 20 км ясно +23.7 +9.3 40 +25 +25 комфорт 1012.3 1007.4
06 23.08 ЮЗ 1 20 км ясно +32.0 +13.9 33 +33 +46 жарко 1012.7 1007.9 +23.5
12 23.08 ЮВ 2 20 км ясно +38.2 +9.2 17 +36 +44 очень
жарко
1011.6 1007.2
18 23.08 штиль 0 20 км ясно +28.5 +16.9 49 +32 +32 душно 1013.2 1008.5 +39.1
00 24.08 штиль 0 20 км ясно +25.0 +18.4 67 +30 +30 душно 1013.3 1008.5
06 24.08 ЮВ 2 20 км ясно +33.5 +15.7 34 +36 +46 очень
душно
1014.2 1009.7 +22.9
12 24.08 ЮВ 2 20 км ясно +35.0 +15.1 30 +36 +44 очень
жарко
1014.3 1009.9
18 24.08 ЮВ 1 20 км 8/0
[As op]
+27.7 +21.4 69 +35 +35 очень
душно
1014.3 1009.7 +35.6
00 25.08 ЮЗ 2 20 км ясно +24.3 +16.5 62 +28 +28 душно 1013.9 1009.1
06 25.08 ЮЗ 2 20 км ясно +30.8 +19.4 51 +37 +47 очень
душно
1015.2 1010.5 +22.6
12 25.08 СВ 4 20 км ясно +34.4 +6.8 18 +32 +38 жарко 1013.7 1009.2
18 25.08 СВ 3 20 км ясно +25.4 +19.5 70 +31 +31 очень
душно
1015.0 1010.1 +35.6

 

Местоположение метеостанции Баку (дендропарк) (Азербайджан): широта 40.42 долгота 49.78 высота над уровнем моря 85 м.

В архиве по умолчанию представлена погода в Баку (дендропарк) за последнюю неделю. Архивные данные за месяц целиком и за предыдущие месяцы, начиная с января 2011 года, Вы можете получить, выбрав интересующий диапазон дат из раскрывающегося списка и нажав кнопку "Ввод!".


*Определитесь, кто Вы:
робот инопланетянин человек

Внимание! Время в таблицах - всемирное. Для получения местного времени необходимо прибавить поправку, которая равна 4 ч.

Смотрите также архив погоды в соседних городах и на ближайших метеорологических станциях:

Погода в Баку (Азербайджан) (25 км)
Погода в Алате (Азербайджан) (60 км)
Погода в Маразе (Азербайджан) (73 км)
Погода в Шемахе (Азербайджан) (100 км)
Погода в Нефтечале (Азербайджан) (122 км)
Погода в Курдамире (Азербайджан) (137 км)
Погода в Губе (Азербайджан) (150 км)
Погода в Габале (Азербайджан) (173 км)
Погода в Геокчае (Азербайджан) (173 км)
Погода в Парсабаде (Иран) (180 км)

Пояснения к столбцам:

Ветер - указаны скорость ветра в м/с - средняя за 10 мин, порывы в срок и между сроками (в фигурных скобках) и направление, откуда дует ветер: С - северный, СВ - северо-восточный, В - восточный, ЮВ - юго-восточный, Ю - южный, ЮЗ - юго-западный, З - западный, СЗ - северо-западный.
Видимость - горизонтальная дальность видимости в метрах или километрах. При видимости от 1 до 10 км при отсутствии осадков обычно наблюдается дымка, при ухудшении видимости до 1 км и менее - туман. В сухую погоду видимость может ухудшаться дымом, пылью или мглою.
Явления - указаны атмосферные явления, наблюдавшиеся в срок или в последний час перед сроком; фигурными скобками обозначены явления, наблюдавшиеся между сроками (за 1-3 часа до срока); квадратными скобками обозначены град или гололедные отложения с указанием их диаметра в мм.
Облачность - указаны через наклонную черту общая и нижняя облачность в баллах и высота нижней границы облаков в метрах; квадратными скобками обозначены формы облаков: Ci - перистые, Cs - перисто-слоистые, Cc - перисто-кучевые, Ac - высококучевые, As - высокослоистые, Sc - слоисто-кучевые, Ns - слоисто-дождевые, Cu - кучевые, Cb - кучево-дождевые. Подробнее классификацию облаков см. в Атласе облаков (PDF).
T - Температура воздуха - температура, измеренная на высоте 2 м над землей.
Td - Температура точки росы - температура, при понижении до которой содержащийся в воздухе водяной пар достигнет насыщения.
f - Относительная влажность воздуха - влажноcть воздуха, измеренная на высоте 2 м над землей.
Te - Эффективная температура - температура, которую ощущает одетый по сезону человек в тени. Характеристика душности погоды. При расчете учитывается влияние влажности воздуха и скорости ветра на теплоощущения человека.
Tes - Эффективная температура на солнце - температура, которую ощущает человек, с поправкой на солнечный нагрев. Характеристика знойности погоды. Зависит от высоты солнца над горизонтом, облачности и скорости ветра. Ночью, в пасмурную погоду, а также при ветре 12 м/с и более поправка равна нулю.
P - Атмосферное давление - приведенное к уровню моря атмосферное давление.
Po - Атмосферное давление - измеренное на уровне метеостанции атмосферное давление.
Tmin - Минимальная температура - минимум температуры воздуха на высоте 2 м над землей.
Tmax - Максимальная температура - максимум температуры воздуха на высоте 2 м над землей.
R - Количество осадков - Количество выпавших осадков за период времени, мм. При наведении курсора мыши на число - период времени, за который выпало указанное количество осадков.
R24 - Количество осадков - Количество выпавших осадков за 24 часа, мм.
S - Снежный покров - Высота снежного покрова, см. При наведении курсора мыши на число - состояние снежного покрова и степень покрытия местности в баллах.